Year,Month,Day,Hour,Minute,Value (Times are PST for temperature in C)
2022,10,02,00,00,13.50
2022,10,02,00,01,13.40
2022,10,02,00,02,13.40
2022,10,02,00,03,13.40
2022,10,02,00,04,13.40
2022,10,02,00,05,13.40
2022,10,02,00,06,13.40
2022,10,02,00,07,13.40
2022,10,02,00,08,13.40
2022,10,02,00,09,13.30
2022,10,02,00,10,13.30
2022,10,02,00,11,13.30
2022,10,02,00,12,13.30
2022,10,02,00,13,13.30
2022,10,02,00,14,13.30
2022,10,02,00,15,13.30
2022,10,02,00,16,13.30
2022,10,02,00,17,13.30
2022,10,02,00,18,13.30
2022,10,02,00,19,13.30
2022,10,02,00,20,13.30
2022,10,02,00,21,13.30
2022,10,02,00,22,13.30
2022,10,02,00,23,13.30
2022,10,02,00,24,13.30
2022,10,02,00,25,13.30
2022,10,02,00,26,13.20
2022,10,02,00,27,13.20
2022,10,02,00,28,13.30
2022,10,02,00,29,13.20
2022,10,02,00,30,13.20
2022,10,02,00,31,13.20
2022,10,02,00,32,13.20
2022,10,02,00,33,13.20
2022,10,02,00,34,13.20
2022,10,02,00,35,13.20
2022,10,02,00,36,13.20
2022,10,02,00,37,13.20
2022,10,02,00,38,13.20
2022,10,02,00,39,13.20
2022,10,02,00,40,13.20
2022,10,02,00,41,13.20
2022,10,02,00,42,13.20
2022,10,02,00,43,13.20
2022,10,02,00,44,13.10
2022,10,02,00,45,13.20
2022,10,02,00,46,13.10
2022,10,02,00,47,13.10
2022,10,02,00,48,13.10
2022,10,02,00,49,13.10
2022,10,02,00,50,13.10
2022,10,02,00,51,13.10
2022,10,02,00,52,13.10
2022,10,02,00,53,13.10
2022,10,02,00,54,13.10
2022,10,02,00,55,13.10
2022,10,02,00,56,13.10
2022,10,02,00,57,13.10
2022,10,02,00,58,13.10
2022,10,02,00,59,13.10
2022,10,02,01,00,13.00
2022,10,02,01,01,13.00
2022,10,02,01,02,13.00
2022,10,02,01,03,13.00
2022,10,02,01,04,13.00
2022,10,02,01,05,13.00
2022,10,02,01,06,13.00
2022,10,02,01,07,13.00
2022,10,02,01,08,12.90
2022,10,02,01,09,12.90
2022,10,02,01,10,12.90
2022,10,02,01,11,12.90
2022,10,02,01,12,12.90
2022,10,02,01,13,12.90
2022,10,02,01,14,12.90
2022,10,02,01,15,12.90
2022,10,02,01,16,12.90
2022,10,02,01,17,12.80
2022,10,02,01,18,12.80
2022,10,02,01,19,12.80
2022,10,02,01,20,12.80
2022,10,02,01,21,12.80
2022,10,02,01,22,12.80
2022,10,02,01,23,12.80
2022,10,02,01,24,12.80
2022,10,02,01,25,12.80
2022,10,02,01,26,12.80
2022,10,02,01,27,12.80
2022,10,02,01,28,12.80
2022,10,02,01,29,12.80
2022,10,02,01,30,12.80
2022,10,02,01,31,12.70
2022,10,02,01,32,12.70
2022,10,02,01,33,12.70
2022,10,02,01,34,12.70
2022,10,02,01,35,12.70
2022,10,02,01,36,12.70
2022,10,02,01,37,12.70
2022,10,02,01,38,12.60
2022,10,02,01,39,12.60
2022,10,02,01,40,12.60
2022,10,02,01,41,12.60
2022,10,02,01,42,12.60
2022,10,02,01,43,12.60
2022,10,02,01,44,12.60
2022,10,02,01,45,12.60
2022,10,02,01,46,12.60
2022,10,02,01,47,12.60
2022,10,02,01,48,12.60
2022,10,02,01,49,12.60
2022,10,02,01,50,12.50
2022,10,02,01,51,12.50
2022,10,02,01,52,12.50
2022,10,02,01,53,12.50
2022,10,02,01,54,12.50
2022,10,02,01,55,12.50
2022,10,02,01,56,12.50
2022,10,02,01,57,12.50
2022,10,02,01,58,12.50
2022,10,02,01,59,12.40
2022,10,02,02,00,12.40
2022,10,02,02,01,12.40
2022,10,02,02,02,12.40
2022,10,02,02,03,12.40
2022,10,02,02,04,12.40
2022,10,02,02,05,12.30
2022,10,02,02,06,12.30
2022,10,02,02,07,12.30
2022,10,02,02,08,12.30
2022,10,02,02,09,12.30
2022,10,02,02,10,12.30
2022,10,02,02,11,12.30
2022,10,02,02,12,12.30
2022,10,02,02,13,12.30
2022,10,02,02,14,12.30
2022,10,02,02,15,12.30
2022,10,02,02,16,12.20
2022,10,02,02,17,12.20
2022,10,02,02,18,12.20
2022,10,02,02,19,12.20
2022,10,02,02,20,12.20
2022,10,02,02,21,12.20
2022,10,02,02,22,12.20
2022,10,02,02,23,12.20
2022,10,02,02,24,12.20
2022,10,02,02,25,12.20
2022,10,02,02,26,12.20
2022,10,02,02,27,12.20
2022,10,02,02,28,12.20
2022,10,02,02,29,12.10
2022,10,02,02,30,12.10
2022,10,02,02,31,12.20
2022,10,02,02,32,12.20
2022,10,02,02,33,12.10
2022,10,02,02,34,12.20
2022,10,02,02,35,12.10
2022,10,02,02,36,12.10
2022,10,02,02,37,12.10
2022,10,02,02,38,12.10
2022,10,02,02,39,12.10
2022,10,02,02,40,12.10
2022,10,02,02,41,12.10
2022,10,02,02,42,12.10
2022,10,02,02,43,12.10
2022,10,02,02,44,12.10
2022,10,02,02,45,12.10
2022,10,02,02,46,12.10
2022,10,02,02,47,12.10
2022,10,02,02,48,12.10
2022,10,02,02,49,12.10
2022,10,02,02,50,12.10
2022,10,02,02,51,12.10
2022,10,02,02,52,12.10
2022,10,02,02,53,12.10
2022,10,02,02,54,12.10
2022,10,02,02,55,12.10
2022,10,02,02,56,12.10
2022,10,02,02,57,12.10
2022,10,02,02,58,12.10
2022,10,02,02,59,12.00
2022,10,02,03,00,12.00
2022,10,02,03,01,12.00
2022,10,02,03,02,12.00
2022,10,02,03,03,12.00
2022,10,02,03,04,12.00
2022,10,02,03,05,12.00
2022,10,02,03,06,12.00
2022,10,02,03,07,12.00
2022,10,02,03,08,12.00
2022,10,02,03,09,12.00
2022,10,02,03,10,11.90
2022,10,02,03,11,11.90
2022,10,02,03,12,11.90
2022,10,02,03,13,11.90
2022,10,02,03,14,11.90
2022,10,02,03,15,11.90
2022,10,02,03,16,11.90
2022,10,02,03,17,11.90
2022,10,02,03,18,11.90
2022,10,02,03,19,11.90
2022,10,02,03,20,11.90
2022,10,02,03,21,11.90
2022,10,02,03,22,11.90
2022,10,02,03,23,11.90
2022,10,02,03,24,11.90
2022,10,02,03,25,11.90
2022,10,02,03,26,11.90
2022,10,02,03,27,11.90
2022,10,02,03,28,11.90
2022,10,02,03,29,11.80
2022,10,02,03,30,11.80
2022,10,02,03,31,11.80
2022,10,02,03,32,11.80
2022,10,02,03,33,11.80
2022,10,02,03,34,11.80
2022,10,02,03,35,11.80
2022,10,02,03,36,11.80
2022,10,02,03,37,11.80
2022,10,02,03,38,11.80
2022,10,02,03,39,11.80
2022,10,02,03,40,11.80
2022,10,02,03,41,11.80
2022,10,02,03,42,11.80
2022,10,02,03,43,11.80
2022,10,02,03,44,11.80
2022,10,02,03,45,11.80
2022,10,02,03,46,11.80
2022,10,02,03,47,11.80
2022,10,02,03,48,11.70
2022,10,02,03,49,11.70
2022,10,02,03,50,11.70
2022,10,02,03,51,11.70
2022,10,02,03,52,11.70
2022,10,02,03,53,11.70
2022,10,02,03,54,11.70
2022,10,02,03,55,11.70
2022,10,02,03,56,11.70
2022,10,02,03,57,11.70
2022,10,02,03,58,11.70
2022,10,02,03,59,11.70
2022,10,02,04,00,11.70
2022,10,02,04,01,11.70
2022,10,02,04,02,11.70
2022,10,02,04,03,11.70
2022,10,02,04,04,11.70
2022,10,02,04,05,11.60
2022,10,02,04,06,11.60
2022,10,02,04,07,11.60
2022,10,02,04,08,11.60
2022,10,02,04,09,11.60
2022,10,02,04,10,11.60
2022,10,02,04,11,11.60
2022,10,02,04,12,11.60
2022,10,02,04,13,11.60
2022,10,02,04,14,11.60
2022,10,02,04,15,11.60
2022,10,02,04,16,11.60
2022,10,02,04,17,11.60
2022,10,02,04,18,11.60
2022,10,02,04,19,11.60
2022,10,02,04,20,11.50
2022,10,02,04,21,11.50
2022,10,02,04,22,11.50
2022,10,02,04,23,11.50
2022,10,02,04,24,11.50
2022,10,02,04,25,11.50
2022,10,02,04,26,11.50
2022,10,02,04,27,11.50
2022,10,02,04,28,11.50
2022,10,02,04,29,11.50
2022,10,02,04,30,11.50
2022,10,02,04,31,11.50
2022,10,02,04,32,11.50
2022,10,02,04,33,11.50
2022,10,02,04,34,11.50
2022,10,02,04,35,11.50
2022,10,02,04,36,11.50
2022,10,02,04,37,11.50
2022,10,02,04,38,11.50
2022,10,02,04,39,11.40
2022,10,02,04,40,11.50
2022,10,02,04,41,11.40
2022,10,02,04,42,11.50
2022,10,02,04,43,11.40
2022,10,02,04,44,11.40
2022,10,02,04,45,11.40
2022,10,02,04,46,11.40
2022,10,02,04,47,11.40
2022,10,02,04,48,11.40
2022,10,02,04,49,11.40
2022,10,02,04,50,11.40
2022,10,02,04,51,11.40
2022,10,02,04,52,11.40
2022,10,02,04,53,11.40
2022,10,02,04,54,11.40
2022,10,02,04,55,11.40
2022,10,02,04,56,11.40
2022,10,02,04,57,11.30
2022,10,02,04,58,11.30
2022,10,02,04,59,11.30
2022,10,02,05,00,11.30
2022,10,02,05,01,11.30
2022,10,02,05,02,11.30
2022,10,02,05,03,11.30
2022,10,02,05,04,11.30
2022,10,02,05,05,11.30
2022,10,02,05,06,11.30
2022,10,02,05,07,11.30
2022,10,02,05,08,11.30
2022,10,02,05,09,11.30
2022,10,02,05,10,11.20
2022,10,02,05,11,11.20
2022,10,02,05,12,11.20
2022,10,02,05,13,11.20
2022,10,02,05,14,11.20
2022,10,02,05,15,11.20
2022,10,02,05,16,11.20
2022,10,02,05,17,11.20
2022,10,02,05,18,11.20
2022,10,02,05,19,11.20
2022,10,02,05,20,11.20
2022,10,02,05,21,11.20
2022,10,02,05,22,11.20
2022,10,02,05,23,11.20
2022,10,02,05,24,11.20
2022,10,02,05,25,11.20
2022,10,02,05,26,11.20
2022,10,02,05,27,11.20
2022,10,02,05,28,11.10
2022,10,02,05,29,11.10
2022,10,02,05,30,11.10
2022,10,02,05,31,11.10
2022,10,02,05,32,11.10
2022,10,02,05,33,11.10
2022,10,02,05,34,11.10
2022,10,02,05,35,11.10
2022,10,02,05,36,11.10
2022,10,02,05,37,11.10
2022,10,02,05,38,11.10
2022,10,02,05,39,11.10
2022,10,02,05,40,11.10
2022,10,02,05,41,11.10
2022,10,02,05,42,11.10
2022,10,02,05,43,11.10
2022,10,02,05,44,11.10
2022,10,02,05,45,11.10
2022,10,02,05,46,11.10
2022,10,02,05,47,11.10
2022,10,02,05,48,11.10
2022,10,02,05,49,11.10
2022,10,02,05,50,11.10
2022,10,02,05,51,11.10
2022,10,02,05,52,11.10
2022,10,02,05,53,11.00
2022,10,02,05,54,11.00
2022,10,02,05,55,11.00
2022,10,02,05,56,11.00
2022,10,02,05,57,11.00
2022,10,02,05,58,11.00
2022,10,02,05,59,11.00
2022,10,02,06,00,11.00
2022,10,02,06,01,10.90
2022,10,02,06,02,10.90
2022,10,02,06,03,10.90
2022,10,02,06,04,10.90
2022,10,02,06,05,10.90
2022,10,02,06,06,10.90
2022,10,02,06,07,10.90
2022,10,02,06,08,10.90
2022,10,02,06,09,10.90
2022,10,02,06,10,10.90
2022,10,02,06,11,10.90
2022,10,02,06,12,10.90
2022,10,02,06,13,10.90
2022,10,02,06,14,10.90
2022,10,02,06,15,10.90
2022,10,02,06,16,10.90
2022,10,02,06,17,10.90
2022,10,02,06,18,10.90
2022,10,02,06,19,10.90
2022,10,02,06,20,10.90
2022,10,02,06,21,10.90
2022,10,02,06,22,10.90
2022,10,02,06,23,10.90
2022,10,02,06,24,10.90
2022,10,02,06,25,10.90
2022,10,02,06,26,10.90
2022,10,02,06,27,10.90
2022,10,02,06,28,10.90
2022,10,02,06,29,10.90
2022,10,02,06,30,10.90
2022,10,02,06,31,10.90
2022,10,02,06,32,10.90
2022,10,02,06,33,10.90
2022,10,02,06,34,10.90
2022,10,02,06,35,10.90
2022,10,02,06,36,10.90
2022,10,02,06,37,10.80
2022,10,02,06,38,10.80
2022,10,02,06,39,10.80
2022,10,02,06,40,10.80
2022,10,02,06,41,10.80
2022,10,02,06,42,10.80
2022,10,02,06,43,10.80
2022,10,02,06,44,10.80
2022,10,02,06,45,10.80
2022,10,02,06,46,10.80
2022,10,02,06,47,10.80
2022,10,02,06,48,10.80
2022,10,02,06,49,10.80
2022,10,02,06,50,10.80
2022,10,02,06,51,10.80
2022,10,02,06,52,10.70
2022,10,02,06,53,10.70
2022,10,02,06,54,10.70
2022,10,02,06,55,10.70
2022,10,02,06,56,10.70
2022,10,02,06,57,10.70
2022,10,02,06,58,10.70
2022,10,02,06,59,10.70
2022,10,02,07,00,10.70
2022,10,02,07,01,10.70
2022,10,02,07,02,10.70
2022,10,02,07,03,10.70
2022,10,02,07,04,10.60
2022,10,02,07,05,10.60
2022,10,02,07,06,10.60
2022,10,02,07,07,10.60
2022,10,02,07,08,10.60
2022,10,02,07,09,10.60
2022,10,02,07,10,10.60
2022,10,02,07,11,10.60
2022,10,02,07,12,10.60
2022,10,02,07,13,10.60
2022,10,02,07,14,10.60
2022,10,02,07,15,10.60
2022,10,02,07,16,10.60
2022,10,02,07,17,10.60
2022,10,02,07,18,10.60
2022,10,02,07,19,10.60
2022,10,02,07,20,10.60
2022,10,02,07,21,10.60
2022,10,02,07,22,10.60
2022,10,02,07,23,10.60
2022,10,02,07,24,10.60
2022,10,02,07,25,10.60
2022,10,02,07,26,10.60
2022,10,02,07,27,10.60
2022,10,02,07,28,10.50
2022,10,02,07,29,10.50
2022,10,02,07,30,10.50
2022,10,02,07,31,10.50
2022,10,02,07,32,10.50
2022,10,02,07,33,10.50
2022,10,02,07,34,10.50
2022,10,02,07,35,10.50
2022,10,02,07,36,10.50
2022,10,02,07,37,10.50
2022,10,02,07,38,10.50
2022,10,02,07,39,10.50
2022,10,02,07,40,10.50
2022,10,02,07,41,10.50
2022,10,02,07,42,10.50
2022,10,02,07,43,10.50
2022,10,02,07,44,10.50
2022,10,02,07,45,10.50
2022,10,02,07,46,10.50
2022,10,02,07,47,10.50
2022,10,02,07,48,10.50
2022,10,02,07,49,10.50
2022,10,02,07,50,10.50
2022,10,02,07,51,10.50
2022,10,02,07,52,10.50
2022,10,02,07,53,10.50
2022,10,02,07,54,10.50
2022,10,02,07,55,10.50
2022,10,02,07,56,10.50
2022,10,02,07,57,10.50
2022,10,02,07,58,10.50
2022,10,02,07,59,10.50
2022,10,02,08,00,10.50
2022,10,02,08,01,10.50
2022,10,02,08,02,10.50
2022,10,02,08,03,10.50
2022,10,02,08,04,10.50
2022,10,02,08,05,10.50
2022,10,02,08,06,10.50
2022,10,02,08,07,10.50
2022,10,02,08,08,10.50
2022,10,02,08,09,10.50
2022,10,02,08,10,10.50
2022,10,02,08,11,10.50
2022,10,02,08,12,10.50
2022,10,02,08,13,10.50
2022,10,02,08,14,10.50
2022,10,02,08,15,10.50
2022,10,02,08,16,10.50
2022,10,02,08,17,10.50
2022,10,02,08,18,10.50
2022,10,02,08,19,10.50
2022,10,02,08,20,10.50
2022,10,02,08,21,10.50
2022,10,02,08,22,10.50
2022,10,02,08,23,10.50
2022,10,02,08,24,10.50
2022,10,02,08,25,10.50
2022,10,02,08,26,10.50
2022,10,02,08,27,10.50
2022,10,02,08,28,10.50
2022,10,02,08,29,10.50
2022,10,02,08,30,10.50
2022,10,02,08,31,10.50
2022,10,02,08,32,10.50
2022,10,02,08,33,10.50
2022,10,02,08,34,10.50
2022,10,02,08,35,10.50
2022,10,02,08,36,10.50
2022,10,02,08,37,10.50
2022,10,02,08,38,10.60
2022,10,02,08,39,10.60
2022,10,02,08,40,10.60
2022,10,02,08,41,10.60
2022,10,02,08,42,10.60
2022,10,02,08,43,10.60
2022,10,02,08,44,10.60
2022,10,02,08,45,10.60
2022,10,02,08,46,10.60
2022,10,02,08,47,10.60
2022,10,02,08,48,10.60
2022,10,02,08,49,10.60
2022,10,02,08,50,10.60
2022,10,02,08,51,10.60
2022,10,02,08,52,10.60
2022,10,02,08,53,10.60
2022,10,02,08,54,10.60
2022,10,02,08,55,10.60
2022,10,02,08,56,10.70
2022,10,02,08,57,10.70
2022,10,02,08,58,10.70
2022,10,02,08,59,10.70
2022,10,02,09,00,10.70
2022,10,02,09,01,10.70
2022,10,02,09,02,10.70
2022,10,02,09,03,10.80
2022,10,02,09,04,10.80
2022,10,02,09,05,10.80
2022,10,02,09,06,10.80
2022,10,02,09,07,10.80
2022,10,02,09,08,10.80
2022,10,02,09,09,10.80
2022,10,02,09,10,10.80
2022,10,02,09,11,10.90
2022,10,02,09,12,10.90
2022,10,02,09,13,10.90
2022,10,02,09,14,10.90
2022,10,02,09,15,10.90
2022,10,02,09,16,10.90
2022,10,02,09,17,10.90
2022,10,02,09,18,11.00
2022,10,02,09,19,11.00
2022,10,02,09,20,11.00
2022,10,02,09,21,11.10
2022,10,02,09,22,11.10
2022,10,02,09,23,11.10
2022,10,02,09,24,11.10
2022,10,02,09,25,11.10
2022,10,02,09,26,11.20
2022,10,02,09,27,11.20
2022,10,02,09,28,11.20
2022,10,02,09,29,11.20
2022,10,02,09,30,11.20
2022,10,02,09,31,11.30
2022,10,02,09,32,11.30
2022,10,02,09,33,11.30
2022,10,02,09,34,11.30
2022,10,02,09,35,11.30
2022,10,02,09,36,11.40
2022,10,02,09,37,11.40
2022,10,02,09,38,11.40
2022,10,02,09,39,11.40
2022,10,02,09,40,11.40
2022,10,02,09,41,11.50
2022,10,02,09,42,11.50
2022,10,02,09,43,11.50
2022,10,02,09,44,11.60
2022,10,02,09,45,11.60
2022,10,02,09,46,11.60
2022,10,02,09,47,11.70
2022,10,02,09,48,11.70
2022,10,02,09,49,11.70
2022,10,02,09,50,11.80
2022,10,02,09,51,11.80
2022,10,02,09,52,11.80
2022,10,02,09,53,11.90
2022,10,02,09,54,11.90
2022,10,02,09,55,11.90
2022,10,02,09,56,12.00
2022,10,02,09,57,12.00
2022,10,02,09,58,12.10
2022,10,02,09,59,12.10
2022,10,02,10,00,12.10
2022,10,02,10,01,12.10
2022,10,02,10,02,12.20
2022,10,02,10,03,12.20
2022,10,02,10,04,12.20
2022,10,02,10,05,12.30
2022,10,02,10,06,12.30
2022,10,02,10,07,12.30
2022,10,02,10,08,12.40
2022,10,02,10,09,12.40
2022,10,02,10,10,12.50
2022,10,02,10,11,12.50
2022,10,02,10,12,12.50
2022,10,02,10,13,12.50
2022,10,02,10,14,12.60
2022,10,02,10,15,12.60
2022,10,02,10,16,12.60
2022,10,02,10,17,12.70
2022,10,02,10,18,12.70
2022,10,02,10,19,12.80
2022,10,02,10,20,12.80
2022,10,02,10,21,12.80
2022,10,02,10,22,12.80
2022,10,02,10,23,12.90
2022,10,02,10,24,12.90
2022,10,02,10,25,13.00
2022,10,02,10,26,13.00
2022,10,02,10,27,13.10
2022,10,02,10,28,13.10
2022,10,02,10,29,13.10
2022,10,02,10,30,13.10
2022,10,02,10,31,13.20
2022,10,02,10,32,13.20
2022,10,02,10,33,13.30
2022,10,02,10,34,13.30
2022,10,02,10,35,13.40
2022,10,02,10,36,13.40
2022,10,02,10,37,13.40
2022,10,02,10,38,13.50
2022,10,02,10,39,13.60
2022,10,02,10,40,13.60
2022,10,02,10,41,13.70
2022,10,02,10,42,13.90
2022,10,02,10,43,14.00
2022,10,02,10,44,14.10
2022,10,02,10,45,14.20
2022,10,02,10,46,14.30
2022,10,02,10,47,14.30
2022,10,02,10,48,14.40
2022,10,02,10,49,14.50
2022,10,02,10,50,14.60
2022,10,02,10,51,14.70
2022,10,02,10,52,14.80
2022,10,02,10,53,14.90
2022,10,02,10,54,15.00
2022,10,02,10,55,15.10
2022,10,02,10,56,15.20
2022,10,02,10,57,15.20
2022,10,02,10,58,15.30
2022,10,02,10,59,15.40
2022,10,02,11,00,15.50
2022,10,02,11,01,15.70
2022,10,02,11,02,15.80
2022,10,02,11,03,15.90
2022,10,02,11,04,16.00
2022,10,02,11,05,16.00
2022,10,02,11,06,16.10
2022,10,02,11,07,16.20
2022,10,02,11,08,16.30
2022,10,02,11,09,16.40
2022,10,02,11,10,16.40
2022,10,02,11,11,16.50
2022,10,02,11,12,16.60
2022,10,02,11,13,16.70
2022,10,02,11,14,16.80
2022,10,02,11,15,16.80
2022,10,02,11,16,16.90
2022,10,02,11,17,16.90
2022,10,02,11,18,17.00
2022,10,02,11,19,17.10
2022,10,02,11,20,17.10
2022,10,02,11,21,17.20
2022,10,02,11,22,17.20
2022,10,02,11,23,17.30
2022,10,02,11,24,17.30
2022,10,02,11,25,17.40
2022,10,02,11,26,17.40
2022,10,02,11,27,17.40
2022,10,02,11,28,17.50
2022,10,02,11,29,17.60
2022,10,02,11,30,17.60
2022,10,02,11,31,17.60
2022,10,02,11,32,17.70
2022,10,02,11,33,17.80
2022,10,02,11,34,17.80
2022,10,02,11,35,17.80
2022,10,02,11,36,17.90
2022,10,02,11,37,17.90
2022,10,02,11,38,17.90
2022,10,02,11,39,18.00
2022,10,02,11,40,18.10
2022,10,02,11,41,18.10
2022,10,02,11,42,18.20
2022,10,02,11,43,18.20
2022,10,02,11,44,18.20
2022,10,02,11,45,18.20
2022,10,02,11,46,18.30
2022,10,02,11,47,18.30
2022,10,02,11,48,18.40
2022,10,02,11,49,18.40
2022,10,02,11,50,18.50
2022,10,02,11,51,18.60
2022,10,02,11,52,18.70
2022,10,02,11,53,18.70
2022,10,02,11,54,18.80
2022,10,02,11,55,18.90
2022,10,02,11,56,18.90
2022,10,02,11,57,19.00
2022,10,02,11,58,19.10
2022,10,02,11,59,19.20
2022,10,02,12,00,19.30
2022,10,02,12,01,19.30
2022,10,02,12,02,19.40
2022,10,02,12,03,19.50
2022,10,02,12,04,19.50
2022,10,02,12,05,19.60
2022,10,02,12,06,19.60
2022,10,02,12,07,19.70
2022,10,02,12,08,19.70
2022,10,02,12,09,19.80
2022,10,02,12,10,19.90
2022,10,02,12,11,19.90
2022,10,02,12,12,20.00
2022,10,02,12,13,20.10
2022,10,02,12,14,20.10
2022,10,02,12,15,20.20
2022,10,02,12,16,20.20
2022,10,02,12,17,20.20
2022,10,02,12,18,20.30
2022,10,02,12,19,20.30
2022,10,02,12,20,20.40
2022,10,02,12,21,20.50
2022,10,02,12,22,20.60
2022,10,02,12,23,20.70
2022,10,02,12,24,20.70
2022,10,02,12,25,20.80
2022,10,02,12,26,20.90
2022,10,02,12,27,20.90
2022,10,02,12,28,20.90
2022,10,02,12,29,21.00
2022,10,02,12,30,21.00
2022,10,02,12,31,21.00
2022,10,02,12,32,21.10
2022,10,02,12,33,21.10
2022,10,02,12,34,21.20
2022,10,02,12,35,21.20
2022,10,02,12,36,21.20
2022,10,02,12,37,21.30
2022,10,02,12,38,21.30
2022,10,02,12,39,21.40
2022,10,02,12,40,21.40
2022,10,02,12,41,21.50
2022,10,02,12,42,21.50
2022,10,02,12,43,21.60
2022,10,02,12,44,21.60
2022,10,02,12,45,21.70
2022,10,02,12,46,21.70
2022,10,02,12,47,21.70
2022,10,02,12,48,21.80
2022,10,02,12,49,21.80
2022,10,02,12,50,21.80
2022,10,02,12,51,21.80
2022,10,02,12,52,21.80
2022,10,02,12,53,21.80
2022,10,02,12,54,21.80
2022,10,02,12,55,21.80
2022,10,02,12,56,21.80
2022,10,02,12,57,21.80
2022,10,02,12,58,21.90
2022,10,02,12,59,21.90
2022,10,02,13,00,21.90
2022,10,02,13,01,21.90
2022,10,02,13,02,22.00
2022,10,02,13,03,22.00
2022,10,02,13,04,22.00
2022,10,02,13,05,22.00
2022,10,02,13,06,22.00
2022,10,02,13,07,22.10
2022,10,02,13,08,22.10
2022,10,02,13,09,22.10
2022,10,02,13,10,22.10
2022,10,02,13,11,22.00
2022,10,02,13,12,22.00
2022,10,02,13,13,22.00
2022,10,02,13,14,22.00
2022,10,02,13,15,22.00
2022,10,02,13,16,22.00
2022,10,02,13,17,22.00
2022,10,02,13,18,22.00
2022,10,02,13,19,22.10
2022,10,02,13,20,22.10
2022,10,02,13,21,22.10
2022,10,02,13,22,22.10
2022,10,02,13,23,22.10
2022,10,02,13,24,22.10
2022,10,02,13,25,22.10
2022,10,02,13,26,22.10
2022,10,02,13,27,22.10
2022,10,02,13,28,22.10
2022,10,02,13,29,22.20
2022,10,02,13,30,22.20
2022,10,02,13,31,22.30
2022,10,02,13,32,22.30
2022,10,02,13,33,22.40
2022,10,02,13,34,22.40
2022,10,02,13,35,22.40
2022,10,02,13,36,22.50
2022,10,02,13,37,22.50
2022,10,02,13,38,22.50
2022,10,02,13,39,22.60
2022,10,02,13,40,22.60
2022,10,02,13,41,22.60
2022,10,02,13,42,22.70
2022,10,02,13,43,22.70
2022,10,02,13,44,22.70
2022,10,02,13,45,22.80
2022,10,02,13,46,22.80
2022,10,02,13,47,22.90
2022,10,02,13,48,22.90
2022,10,02,13,49,22.90
2022,10,02,13,50,22.90
2022,10,02,13,51,23.00
2022,10,02,13,52,23.00
2022,10,02,13,53,23.00
2022,10,02,13,54,23.00
2022,10,02,13,55,23.10
2022,10,02,13,56,23.10
2022,10,02,13,57,23.10
2022,10,02,13,58,23.10
2022,10,02,13,59,23.20
2022,10,02,14,00,23.20
2022,10,02,14,01,23.30
2022,10,02,14,02,23.30
2022,10,02,14,03,23.40
2022,10,02,14,04,23.40
2022,10,02,14,05,23.40
2022,10,02,14,06,23.40
2022,10,02,14,07,23.50
2022,10,02,14,08,23.50
2022,10,02,14,09,23.50
2022,10,02,14,10,23.60
2022,10,02,14,11,23.70
2022,10,02,14,12,23.70
2022,10,02,14,13,23.80
2022,10,02,14,14,23.90
2022,10,02,14,15,24.00
2022,10,02,14,16,24.10
2022,10,02,14,17,24.10
2022,10,02,14,18,24.20
2022,10,02,14,19,24.20
2022,10,02,14,20,24.30
2022,10,02,14,21,24.30
2022,10,02,14,22,24.30
2022,10,02,14,23,24.40
2022,10,02,14,24,24.40
2022,10,02,14,25,24.40
2022,10,02,14,26,24.40
2022,10,02,14,27,24.40
2022,10,02,14,28,24.40
2022,10,02,14,29,24.40
2022,10,02,14,30,24.40
2022,10,02,14,31,24.40
2022,10,02,14,32,24.50
2022,10,02,14,33,24.60
2022,10,02,14,34,24.60
2022,10,02,14,35,24.60
2022,10,02,14,36,24.70
2022,10,02,14,37,24.70
2022,10,02,14,38,24.70
2022,10,02,14,39,24.70
2022,10,02,14,40,24.70
2022,10,02,14,41,24.70
2022,10,02,14,42,24.70
2022,10,02,14,43,24.70
2022,10,02,14,44,24.80
2022,10,02,14,45,24.80
2022,10,02,14,46,24.80
2022,10,02,14,47,24.80
2022,10,02,14,48,24.80
2022,10,02,14,49,24.80
2022,10,02,14,50,24.80
2022,10,02,14,51,24.80
2022,10,02,14,52,24.80
2022,10,02,14,53,24.80
2022,10,02,14,54,24.80
2022,10,02,14,55,24.80
2022,10,02,14,56,24.80
2022,10,02,14,57,24.80
2022,10,02,14,58,24.80
2022,10,02,14,59,24.80
2022,10,02,15,00,24.80
2022,10,02,15,01,24.80
2022,10,02,15,02,24.80
2022,10,02,15,03,24.80
2022,10,02,15,04,24.70
2022,10,02,15,05,24.70
2022,10,02,15,06,24.70
2022,10,02,15,07,24.70
2022,10,02,15,08,24.70
2022,10,02,15,09,24.70
2022,10,02,15,10,24.70
2022,10,02,15,11,24.70
2022,10,02,15,12,24.70
2022,10,02,15,13,24.70
2022,10,02,15,14,24.70
2022,10,02,15,15,24.80
2022,10,02,15,16,24.70
2022,10,02,15,17,24.70
2022,10,02,15,18,24.70
2022,10,02,15,19,24.70
2022,10,02,15,20,24.70
2022,10,02,15,21,24.70
2022,10,02,15,22,24.80
2022,10,02,15,23,24.80
2022,10,02,15,24,24.80
2022,10,02,15,25,24.80
2022,10,02,15,26,24.80
2022,10,02,15,27,24.80
2022,10,02,15,28,24.90
2022,10,02,15,29,24.90
2022,10,02,15,30,24.90
2022,10,02,15,31,24.90
2022,10,02,15,32,24.90
2022,10,02,15,33,24.90
2022,10,02,15,34,24.90
2022,10,02,15,35,25.00
2022,10,02,15,36,25.00
2022,10,02,15,37,25.00
2022,10,02,15,38,25.00
2022,10,02,15,39,25.10
2022,10,02,15,40,25.10
2022,10,02,15,41,25.10
2022,10,02,15,42,25.10
2022,10,02,15,43,25.10
2022,10,02,15,44,25.10
2022,10,02,15,45,25.10
2022,10,02,15,46,25.10
2022,10,02,15,47,25.20
2022,10,02,15,48,25.20
2022,10,02,15,49,25.20
2022,10,02,15,50,25.20
2022,10,02,15,51,25.20
2022,10,02,15,52,25.30
2022,10,02,15,53,25.30
2022,10,02,15,54,25.30
2022,10,02,15,55,25.30
2022,10,02,15,56,25.30
2022,10,02,15,57,25.30
2022,10,02,15,58,25.30
2022,10,02,15,59,25.30
2022,10,02,16,00,25.30
2022,10,02,16,01,25.30
2022,10,02,16,02,25.30
2022,10,02,16,03,25.30
2022,10,02,16,04,25.40
2022,10,02,16,05,25.30
2022,10,02,16,06,25.30
2022,10,02,16,07,25.30
2022,10,02,16,08,25.30
2022,10,02,16,09,25.30
2022,10,02,16,10,25.30
2022,10,02,16,11,25.30
2022,10,02,16,12,25.30
2022,10,02,16,13,25.20
2022,10,02,16,14,25.20
2022,10,02,16,15,25.20
2022,10,02,16,16,25.30
2022,10,02,16,17,25.30
2022,10,02,16,18,25.30
2022,10,02,16,19,25.40
2022,10,02,16,20,25.40
2022,10,02,16,21,25.50
2022,10,02,16,22,25.60
2022,10,02,16,23,25.70
2022,10,02,16,24,25.80
2022,10,02,16,25,25.90
2022,10,02,16,26,26.00
2022,10,02,16,27,26.10
2022,10,02,16,28,26.20
2022,10,02,16,29,26.30
2022,10,02,16,30,26.40
2022,10,02,16,31,26.50
2022,10,02,16,32,26.60
2022,10,02,16,33,26.70
2022,10,02,16,34,26.80
2022,10,02,16,35,26.80
2022,10,02,16,36,26.90
2022,10,02,16,37,26.90
2022,10,02,16,38,26.90
2022,10,02,16,39,26.90
2022,10,02,16,40,27.00
2022,10,02,16,41,27.00
2022,10,02,16,42,26.90
2022,10,02,16,43,26.80
2022,10,02,16,44,26.80
2022,10,02,16,45,26.70
2022,10,02,16,46,26.60
2022,10,02,16,47,26.60
2022,10,02,16,48,26.50
2022,10,02,16,49,26.50
2022,10,02,16,50,26.40
2022,10,02,16,51,26.40
2022,10,02,16,52,26.30
2022,10,02,16,53,26.30
2022,10,02,16,54,26.30
2022,10,02,16,55,26.20
2022,10,02,16,56,26.10
2022,10,02,16,57,26.10
2022,10,02,16,58,26.00
2022,10,02,16,59,25.90
2022,10,02,17,00,25.90
2022,10,02,17,01,25.80
2022,10,02,17,02,25.70
2022,10,02,17,03,25.70
2022,10,02,17,04,25.60
2022,10,02,17,05,25.60
2022,10,02,17,06,25.60
2022,10,02,17,07,25.50
2022,10,02,17,08,25.50
2022,10,02,17,09,25.50
2022,10,02,17,10,25.40
2022,10,02,17,11,25.40
2022,10,02,17,12,25.40
2022,10,02,17,13,25.30
2022,10,02,17,14,25.30
2022,10,02,17,15,25.30
2022,10,02,17,16,25.20
2022,10,02,17,17,25.20
2022,10,02,17,18,25.20
2022,10,02,17,19,25.10